User: anonymous   Login
Location: Unspecified
(0.0000°N, 0.0000°E)
Time: 09:13:00
(UTC+00:00)
Language:

DELFI C3 - Orbit

View from above orbital plane
View from above orbital plane
View from above satellite
View from above satellite

Ground track
Ground track

The orbit data is extracted from the following two-line orbital elements,

1 32789U 08021G   20219.90418963 +.00000871 +00000-0 +60745-4 0  9996
2 32789 097.4150 260.9352 0013264 137.3148 222.9114 15.07836316669414
Epoch (UTC): 06 August 2020 21:42:01
Eccentricity: 0.0013264
inclination: 97.4150°
perigee height: 533 km
apogee height: 552 km
right ascension of ascending node: 260.9352°
argument of perigee: 137.3148°
revolutions per day: 15.07836316
mean anomaly at epoch: 222.9114°
orbit number at epoch: 66941

The dashed part of the orbit path shows where the satellite is in the earth's shadow,  

DLR